Regional Weather Roundup
Issued by NWS Wakefield, VA

Home | Current Version | Previous Version | Text Only | Print | Product List | Glossary Off
Versions: 1 2 3 4 5 6 7 8 9 10 11 12 13 14 15 16 17 18 19 20 21 22 23 24 25 26 27 28 29 30 31 32 33 34 35 36 37 38 39 40 41 42 43 44 45 46 47 48 49 50

000
ASUS41 KAKQ 200710
RWRAKQ

REGIONAL WEATHER ROUNDUP
NATIONAL WEATHER SERVICE WAKEFIELD VA
300 AM EDT SAT SEP 20 2014

Note: "fair" indicates few or no clouds below 12,000 feet with no
significant weather and/or obstructions to visibility. * = Denotes
station may not report precipitation (e.g., rain,snow,etc.),
thunder or fog.

VAZ042-051-052>054-056-200800-
NORTHERN VIRGINIA

CITY           SKY/WX    TMP DP  RH WIND       PRES   REMARKS
WASH NATIONAL  PTCLDY    66  59  78 CALM      30.27F
DULLES         CLOUDY    63  60  90 SE8       30.26F
FORT BELVOIR   MOCLDY    61  59  94 N1        30.27F
QUANTICO       MOCLDY    65  61  87 N7        30.27F
FREDERICKSBRG* PTCLDY    60  60 100 CALM      30.25F
STAFFORD*      MOCLDY    58  58 100 CALM      30.30F FOG
WARRENTON      CLOUDY    64  64 100 CALM      30.26S
CULPEPER*      PTCLDY    61  59  94 CALM      30.27F
MANASSAS*      CLOUDY    63  63 100 SE3       30.26F
LEESBURG*      CLOUDY    64  63  94 SE5       30.28S
WINCHESTER     CLOUDY    63  59  88 SE5       30.25F
FRONT ROYAL*   CLOUDY    64  57  77 SW5       30.25S
LURAY*         CLOUDY    63  61  94 CALM      30.25F
$$

VAZ048-049-060>072-079>083-200800-
CENTRAL AND SOUTH CENTRAL VIRGINIA...AND NORTH CENTRAL NORTH CAROLINA

CITY           SKY/WX    TMP DP  RH WIND       PRES   REMARKS
RICHMOND       PTCLDY    62  58  86 CALM      30.25F
CHESTERFIELD*  SUNNY    N/A N/A N/A E5        30.25F
PETERSBURG*    CLEAR     55  53  92 CALM      30.25S
HANOVER        CLEAR     58  56  93 CALM      30.27F FOG
TAPPAHANNOCK*  CLEAR     55  53  93 CALM      30.26F FOG
CHARLOTTSVILLE CLOUDY    63  59  87 CALM      30.26S
ORANGE*        PTCLDY    59  55  88 CALM      30.28S
LOUISA*        CLOUDY    63  57  82 CALM      30.24F
FARMVILLE*     MOCLDY    61  59  94 CALM      30.24S
CREWE*         CLOUDY    59  57  92 CALM      30.25S
FORT PICKETT*  CLOUDY    60  57  89 CALM      30.24S
LUNENBURG*     SUNNY     61  58  90 CALM      30.24F
SOUTH HILL*    CLOUDY    61  61 100 CALM      30.29F
LAWRENCEVILLE* CLOUDY    58  57  95 CALM      30.23F
ROANOKE RAPIDS SUNNY     55  55 100 CALM      30.23F
RALEIGH        PTCLDY    61  56  83 NE5       30.22F
$$

VAZ088>098-200800-
SOUTHEAST VIRGINIA

CITY           SKY/WX    TMP DP  RH WIND       PRES   REMARKS
NORFOLK        CLEAR     69  58  67 E7        30.22F
VIRGINIA BEACH CLEAR     69  59  70 E8        30.21F
NORFOLK NAVAL  CLEAR     69  58  67 E8        30.24F
WEST POINT*    CLEAR     60  57  91 CALM      30.25F
NEWPORT NEWS   CLEAR     62  57  83 NE3       30.24F
LANGLEY AFB    CLEAR     64  60  86 E5        30.23F
FORT EUSTIS    CLEAR     61  61 100 CALM      30.22F
WILLIAMSBURG*  CLEAR     63  61  94 CALM      30.25F
HR EXEC AP*    SUNNY     52  48  87 CALM      30.25F
FRANKLIN*      CLEAR     55  54  94 CALM      30.23F
WAKEFIELD      CLEAR     57  54  89 CALM      30.24F
$$

VAZ020-022-025-037-045-200800-
WEST CENTRAL AND SOUTHWEST VIRGINIA

CITY           SKY/WX    TMP DP  RH WIND       PRES   REMARKS
STAUNTON*      CLOUDY    60  56  88 CALM      30.28S
HOT SPRINGS VA FOG       52  50  90 SE9       30.33S VSB<1/4
LYNCHBURG      CLOUDY    60  59  96 CALM      30.28F
DANVILLE       MOCLDY    61  59  93 CALM      30.25S
SOUTH BOSTON*  NOT AVBL
MARTINSVILLE   CLOUDY    62  62 100 CALM      30.28S
ROANOKE        CLOUDY    62  58  86 CALM      30.28F
BLACKSBURG     CLOUDY    59  59 100 SE5       30.29F
DUBLIN*        CLOUDY    59  59 100 CALM      30.28F FOG
MARION*        CLOUDY    63  58  84 E7        30.28F
HILLSVILLE*    CLOUDY    58  56  91 SE6       30.28F
RICHLANDS*     SUNNY     64  56  74 S3        30.24S
WISE*          CLEAR     61  52  72 S9        30.23S
ABINGDON*      CLEAR     62  56  81 CALM      30.23S
$$

MDZ021>025-VAZ099-100-200800-
SOUTHERN MARYLAND AND THE DELMARVA PENINSULA

CITY           SKY/WX    TMP DP  RH WIND       PRES   REMARKS
PATUXENT RIVER CLEAR     68  60  75 SE8G17    30.25S
BAY BRIDGE APT   N/A     63  59  88 SE6       30.26F
LEONARDTOWN    CLEAR     59  57  94 CALM      30.27S
DOVER          PTCLDY    67  60  80 SE12      30.24F
GEORGETOWN     CLEAR     59  56  89 CALM      30.27F
EASTON         PTCLDY    59  59 100 CALM      30.30F
CAMBRIDGE      PTCLDY    59  55  88 CALM      30.26F
SALISBURY      PTCLDY    59  56  89 N3        30.26S
OCEAN CITY     CLEAR     69  59  70 SE12      30.26F
WALLOPS ISLAND CLEAR     69  62  78 SE7       30.25F
ACCOMACK*      CLEAR     64  59  82 E5        30.24F
$$

NCZ012>017-030>032-200800-
EASTERN NORTH CAROLINA

CITY           SKY/WX    TMP DP  RH WIND       PRES   REMARKS
ELIZABETH CITY CLEAR     65  61  87 N6        30.21F
AHOSKIE*       CLEAR     57  55  92 CALM      30.22F
EDENTON*       CLEAR     60  58  94 N5        30.20F
CURRITUCK*     CLEAR     71  59  66 NE7       30.22F
KILL DEVIL HLS CLEAR     72  62  70 NE8       30.18F
MANTEO         CLEAR     71  62  74 NE12G17   30.19F
CAPE HATTERAS  MOCLDY    71  65  81 NE10G17   30.15F
TARBORO*       SUNNY     59  57  94 CALM      30.22F
GOLDSBORO      CLEAR     63  62  98 CALM      30.17F
WASHINGTON     PTCLDY    61  59  91 NE6       30.19F
GREENVILLE     CLEAR     61  59  94 N5        30.20F
NEW BERN       MOCLDY    67  60  78 NE7       30.18F
WILMINGTON     CLOUDY    66  62  87 NE9       30.14F
$$

VAZ048-200800-
ELSEWHERE

CITY           SKY/WX    TMP DP  RH WIND       PRES   REMARKS
HARRISBURG PA  CLOUDY    60  55  83 SE6       30.28F
BALTIMORE      CLOUDY    63  60  90 CALM      30.27F
ANNAPOLIS        N/A     66  62  87 SE10      30.26F
ANDREWS AFB    MOCLDY    57  57 100 CALM      30.26F FOG
WILMINGTON DE  MOCLDY    58  55  90 NE3       30.29F
PHILADELPHIA   PTCLDY    57  53  86 E3        30.30F
WILDWOOD NJ*   MOCLDY    66  55  68 E12G18    30.28F
ATLANTIC CITY  CLEAR     62  56  80 SE8       30.28F
HENDERSON NC   CLOUDY    62  58  85 CALM      30.24F
GREENSBORO     CLOUDY    62  60  93 CALM      30.23F
ROCKY MOUNT    CLEAR     60  57  89 N5        30.21F
FAYETTEVILLE   CLEAR     62  59  90 NE7       30.18F
CHARLOTTE      MOCLDY    66  60  81 E6        30.21F
$$

VAZ100-200800-
MARINE

STATION/POSITION TIME  TEMP    WIND        PRES    WAVE   SWELL
                       AIR SEA DIR/SP/G            HT/PER HT/PER
                 (UTC) (F)     (DEG/KT/KT) (MB)    (FT/S) (FT/S)
44066 TX TWR #4  0700   66 72  120/ 14/ 16 1025.9F   4/ 6   3/ 7
CAPE MAY NJ      0700   67 75  100/  8/ 10 1024.5F
LEWES DE         0700   69 71  120/ 10/ 13 1024.3S
15NM E FENWICK I 0700   70 71              1024.1F   6/ 7
OCEAN-CITY-INLET 0700   70 71  130/  9/ 14 1024.2F
WACHAPREAGUE VA  0700   70 73   90/  8/ 12 1024.2F
THOMAS POINT MD  0700   66 74  120/ 11/ 12 1025.6F
GOOSES REEF MD   0700   68     120/ 10/ 14 1025.1S
COVE POINT MD    0700   67     120/  9/ 11 1024.5S
SOLOMONS ISLAND  0700      75                N/A
BISHOPS HEAD MD  0700   68 72  110/  6/  7 1024.0R
PINEY POINT MD   0700          150/ 16/ 19   N/A
POTOMAC MD       0700   71     140/ 14/ 16 1023.5F
CAMBRIDGE MD     0700   65 74   90/  3/  4 1024.6F
LEWISETTA VA     0700   67 73  170/  6/  6 1023.6F
RAPPAHANNOCK LGT 0700           80/  8/  9 1024.5F
STINGRAY PT      0700   71     120/ 10/ 14   N/A
YORK RVR RNG VA  0700   71     100/ 11/ 12 1023.4S
YORKTOWN VA      0700   71 76  100/  9/ 10 1023.6F
JAMESTOWN VA     0700   64      70/  4/  4   N/A
DOMINION TERM VA 0700   71      70/  8/ 11 1023.7F
KIPTOPEKE VA     0700      78  100/  5/  8   N/A
CHES BAY BRIDGE  0700   72 75   60/ 16/ 18 1022.8F
CAPE HENRY VA    0700   72      70/ 13/ 16 1022.2F
CHESAPEAKE LGHT  0600   72      70/ 16/ 18 1024.4F
WILLOUBY STN VA  0700   72      60/ 11/ 12 1022.3F
S CRANEY ISL VA  0700           30/  6/  7 1023.2F
CAPE HENRY BUOY  0700      75                N/A     4/ 5
1ST LANDING BUOY 0700   72      70/ 14/ 16 1023.2F
CAPE CHARLES BUO 0700      74                N/A     4/ 6   2/ 8
OFFSHORE WE BUOY 0700      74                N/A     4/ 6   2/ 7
64NM E OF VA BCH 0700   73 75   50/ 19/ 23 1022.0F   5/ 8   2/ 8
DUCK PIER NC     0700   73 74   40/ 17/ 19 1021.9F
44100 DUCK FRF   0700      74                N/A     5/ 6
44056 DUCK FRF   0700                        N/A     5/ 6
OREGON INLET NC  0700   72 74   30/ 15/ 21 1021.7F
HATTERAS NC      0700   73 74   40/ 14/ 19 1021.3F
DIAMOND SHLS NC  0700   77      60/ 16/ 17 1019.9F   6/ 7   3/ 9
CAPE LOOKOUT NC  0700   74      30/ 21/ 23 1020.1F
$$



USA.gov is the U.S. government's official web portal to all federal, state and local government web resources and services.